OE3EMC-13 Weather Reports


time (UTC)temp
C
wind
direction
speed
KPH
gust
KPH
rain 1hr
cm
rain 24hr
cm
rain mn
cm
humidity
%
barometer
mb
20260905235313 11 67 0.0 0.0 0.00 0.28 0.00 71 1100.0
20260905234311 11 67 0.0 0.0 0.00 0.28 0.00 71 1100.0
20260905233312 11 67 0.0 0.0 0.00 0.28 0.00 71 1100.0
20260905232311 11 67 0.0 0.0 0.00 0.28 0.00 71 1100.0
20260905231312 12 67 0.0 0.0 0.00 0.28 0.00 72 1100.0
20260905230313 12 67 0.0 0.0 0.00 0.28 0.00 72 1100.0
20260905225311 12 67 0.0 0.0 0.00 0.28 0.00 73 1100.0
20260905224310 12 67 0.0 0.0 0.00 0.28 0.00 73 1100.0
20260905223310 11 67 0.0 0.0 0.00 0.28 0.00 77 1100.0
20260905222311 11 67 0.0 0.0 0.00 0.28 0.00 77 1100.0
20260905221310 11 67 0.0 0.0 0.00 0.28 0.00 75 1100.0
20260905220312 11 67 0.0 0.0 0.00 0.28 0.00 75 1100.0
20260905215309 12 67 0.0 0.0 0.00 0.28 0.28 74 1100.0
20260905214309 12 67 0.0 0.0 0.00 0.28 0.28 74 1100.0
20260905213311 13 67 0.0 0.0 0.00 0.28 0.28 76 1100.0
20260905212314 13 67 0.0 0.0 0.00 0.28 0.28 76 1100.0
20260905211316 13 67 0.0 0.0 0.00 0.28 0.28 75 1100.0
20260905210316 13 67 0.0 0.0 0.00 0.28 0.28 75 1100.0
20260905205314 13 67 0.0 0.0 0.00 0.28 0.28 74 1100.0
20260905204313 13 67 0.0 0.0 0.00 0.28 0.28 74 1100.0
20260905203313 13 67 0.0 0.0 0.00 0.28 0.28 75 1100.0
20260905202313 13 67 0.0 0.0 0.00 0.28 0.28 75 1100.0
20260905201315 13 67 0.0 0.0 0.00 0.28 0.28 77 1100.0
20260905200313 13 67 0.0 0.0 0.00 0.28 0.28 77 1100.0
20260905195314 13 67 0.0 0.0 0.00 0.28 0.28 78 1100.0
20260905194313 13 67 0.0 0.0 0.00 0.28 0.28 78 1100.0
20260905193313 13 67 0.0 0.0 0.00 0.28 0.28 76 1100.0
20260905192314 13 67 0.0 0.0 0.00 0.28 0.28 76 1100.0
20260905191312 13 67 0.0 0.0 0.00 0.28 0.28 73 1100.0
20260905190312 13 67 0.0 0.0 0.00 0.28 0.28 73 1100.0
20260905185312 15 67 0.0 0.0 0.00 0.28 0.28 72 1100.0
20260905184313 15 67 0.0 0.0 0.00 0.28 0.28 72 1100.0
20260905183312 15 67 0.0 0.0 0.00 0.28 0.28 71 1100.0
20260905182311 15 67 0.0 0.0 0.00 0.28 0.28 71 1100.0
20260905181311 15 67 0.0 0.0 0.00 0.28 0.28 68 1100.0
20260905180311 15 67 0.0 0.0 0.00 0.28 0.28 68 1100.0
20260905175311 16 135 1.6 0.0 0.00 0.28 0.28 66 1100.0
20260905174313 16 135 1.6 0.0 0.00 0.28 0.28 66 1100.0
20260905173311 16 135 3.2 4.8 0.00 0.28 0.28 65 1100.0
20260905172312 16 135 3.2 4.8 0.00 0.28 0.28 65 1100.0
20260905171310 17 135 3.2 3.2 0.00 0.28 0.28 63 1100.0
20260905170310 17 135 3.2 3.2 0.00 0.28 0.28 63 1100.0
20260905165310 17 135 3.2 9.7 0.00 0.28 0.28 61 1100.0
20260905164310 17 135 3.2 9.7 0.00 0.28 0.28 61 1100.0
20260905163310 18 90 4.8 12.9 0.00 0.28 0.28 59 1100.0
20260905162311 18 90 4.8 12.9 0.00 0.28 0.28 59 1100.0
20260905161311 18 90 4.8 3.2 0.00 0.28 0.28 59 1100.0
20260905160312 18 90 4.8 3.2 0.00 0.28 0.28 59 1100.0
20260905155311 19 135 4.8 6.4 0.00 0.28 0.28 55 1100.0
20260905154316 19 135 4.8 6.4 0.00 0.28 0.28 55 1100.0
20260905153315 21 67 6.4 9.7 0.00 0.28 0.28 53 1100.0
20260905152315 21 67 6.4 9.7 0.00 0.28 0.28 53 1100.0
20260905151314 22 45 3.2 4.8 0.00 0.28 0.28 53 1100.0
20260905150314 22 45 3.2 4.8 0.00 0.28 0.28 53 1100.0
20260905145313 20 225 3.2 4.8 0.00 0.28 0.28 58 1100.0
20260905144315 20 225 3.2 4.8 0.00 0.28 0.28 58 1100.0
20260905143313 20 90 3.2 6.4 0.00 0.28 0.28 59 1100.0
20260905142313 20 90 3.2 6.4 0.00 0.28 0.28 59 1100.0
20260905141313 19 90 4.8 6.4 0.00 0.28 0.28 59 1100.0
20260905140314 19 90 4.8 6.4 0.00 0.28 0.28 59 1100.0
20260905135313 18 90 4.8 4.8 0.00 0.28 0.28 63 1100.0
20260905134313 18 90 4.8 4.8 0.00 0.28 0.28 63 1100.0
20260905133314 19 157 4.8 9.7 0.00 0.28 0.28 62 1100.0
20260905132312 19 157 4.8 9.7 0.00 0.28 0.28 62 1100.0
20260905131312 19 67 6.4 9.7 0.00 0.28 0.28 61 1100.0
20260905130312 19 67 6.4 9.7 0.00 0.28 0.28 61 1100.0
20260905125312 19 180 4.8 4.8 0.00 0.28 0.28 62 1100.0
20260905124311 19 180 4.8 4.8 0.00 0.28 0.28 62 1100.0
20260905122311 18 67 4.8 6.4 0.00 0.28 0.28 65 1100.0
20260905121313 17 270 4.8 4.8 0.00 0.28 0.28 67 1100.0
20260905120311 17 270 4.8 4.8 0.00 0.28 0.28 67 1100.0
20260905115313 17 22 4.8 8.0 0.00 0.28 0.28 70 1100.0
20260905114312 17 22 4.8 8.0 0.00 0.28 0.28 70 1100.0
20260905113311 17 247 4.8 4.8 0.00 0.28 0.28 72 1100.0
20260905112310 17 247 4.8 4.8 0.00 0.28 0.28 72 1100.0
20260905111310 16 157 4.8 4.8 0.00 0.28 0.28 73 1100.0
20260905110310 16 157 4.8 4.8 0.00 0.28 0.28 73 1100.0
20260905105311 17 337 6.4 14.5 0.00 0.28 0.28 73 1100.0
20260905104310 17 337 6.4 14.5 0.00 0.28 0.28 73 1100.0
20260905103311 17 157 6.4 6.4 0.00 0.28 0.28 74 1100.0
20260905102310 17 157 6.4 6.4 0.00 0.28 0.28 74 1100.0
20260905101311 16 90 6.4 9.7 0.00 0.28 0.28 77 1100.0
20260905100311 16 90 6.4 9.7 0.00 0.28 0.28 77 1100.0
20260905095314 16 337 6.4 6.4 0.00 0.28 0.28 79 1100.0
20260905094315 16 337 6.4 6.4 0.00 0.28 0.28 79 1100.0
20260905093314 14 360 4.8 0.0 0.00 0.28 0.28 83 1100.0
20260905092315 14 360 4.8 0.0 0.00 0.28 0.28 83 1100.0
20260905091315 13 202 8.0 4.8 0.08 0.28 0.28 84 1100.0
20260905090315 13 202 8.0 4.8 0.08 0.28 0.28 84 1100.0
20260905085313 13 360 4.8 4.8 0.08 0.28 0.28 84 1100.0
20260905084314 13 360 4.8 4.8 0.08 0.28 0.28 84 1100.0
20260905083313 13 135 4.8 3.2 0.08 0.28 0.28 86 1100.0
20260905082314 13 135 4.8 3.2 0.08 0.28 0.28 86 1100.0
20260905081314 12 45 4.8 3.2 0.00 0.20 0.20 86 1100.0
20260905080312 12 45 4.8 3.2 0.00 0.20 0.20 86 1100.0
20260905075312 12 270 3.2 3.2 0.00 0.20 0.20 86 1100.0
20260905074312 12 270 3.2 3.2 0.00 0.20 0.20 86 1100.0
20260905073312 12 90 1.6 1.6 0.08 0.20 0.20 85 1100.0
20260905072314 12 90 1.6 1.6 0.08 0.20 0.20 85 1100.0
20260905071314 12 135 1.6 0.0 0.08 0.20 0.20 85 1100.0
20260905070313 12 135 1.6 0.0 0.08 0.20 0.20 85 1100.0
20260905065312 12 337 1.6 0.0 0.20 0.20 0.20 85 1100.0
20260905063313 12 202 1.6 4.8 0.13 0.13 0.13 85 1100.0
20260905062313 12 202 1.6 4.8 0.13 0.13 0.13 85 1100.0
20260905061311 12 337 3.2 4.8 0.13 0.13 0.13 85 1100.0
20260905060312 12 337 3.2 4.8 0.13 0.13 0.13 85 1100.0
20260905055312 13 180 1.6 4.8 0.00 0.00 0.00 82 1100.0
20260905054311 13 180 1.6 4.8 0.00 0.00 0.00 82 1100.0
20260905053310 13 180 1.6 1.6 0.00 0.00 0.00 80 1100.0
20260905052310 13 180 1.6 1.6 0.00 0.00 0.00 80 1100.0
20260905051310 13 180 0.0 0.0 0.00 0.00 0.00 77 1100.0
20260905050311 13 180 0.0 0.0 0.00 0.00 0.00 77 1100.0
20260905045310 14 202 3.2 1.6 0.00 0.00 0.00 74 1100.0
20260905044310 14 202 3.2 1.6 0.00 0.00 0.00 74 1100.0
20260905043309 14 247 4.8 3.2 0.00 0.00 0.00 72 1100.0
20260905042311 14 247 4.8 3.2 0.00 0.00 0.00 72 1100.0
20260905041309 15 90 1.6 1.6 0.00 0.00 0.00 72 1100.0
20260905040314 15 90 1.6 1.6 0.00 0.00 0.00 72 1100.0
20260905035314 15 202 3.2 3.2 0.00 0.00 0.00 71 1100.0
20260905034314 15 202 3.2 3.2 0.00 0.00 0.00 71 1100.0
20260905033314 15 247 1.6 1.6 0.00 0.00 0.00 71 1100.0
20260905032315 15 247 1.6 1.6 0.00 0.00 0.00 71 1100.0
20260905031315 16 180 3.2 1.6 0.00 0.00 0.00 71 1100.0
20260905030313 16 180 3.2 1.6 0.00 0.00 0.00 71 1100.0
20260905025315 17 202 8.0 4.8 0.00 0.00 0.00 69 1100.0
20260905024314 17 202 8.0 4.8 0.00 0.00 0.00 69 1100.0
20260905023313 19 202 6.4 19.3 0.00 0.00 0.00 65 1100.0
20260905022312 19 202 6.4 19.3 0.00 0.00 0.00 65 1100.0
20260905021312 20 45 3.2 6.4 0.00 0.00 0.00 63 1100.0
20260905020314 20 45 3.2 6.4 0.00 0.00 0.00 63 1100.0
20260905015314 20 270 3.2 4.8 0.00 0.00 0.00 62 1100.0
20260905014312 20 270 3.2 4.8 0.00 0.00 0.00 62 1100.0
20260905013312 20 202 4.8 3.2 0.00 0.00 0.00 61 1100.0
20260905012313 20 202 4.8 3.2 0.00 0.00 0.00 61 1100.0
20260905011313 20 135 3.2 19.3 0.00 0.00 0.00 60 1100.0
20260905010311 20 135 3.2 19.3 0.00 0.00 0.00 60 1100.0
20260905005311 20 337 3.2 4.8 0.00 0.00 0.00 60 1100.0
20260905004313 20 337 3.2 4.8 0.00 0.00 0.00 60 1100.0
20260905003311 20 90 3.2 17.7 0.00 0.00 0.00 60 1100.0
20260905002313 20 90 3.2 17.7 0.00 0.00 0.00 60 1100.0
20260905001311 20 180 3.2 1.6 0.00 0.00 0.00 59 1100.0
20260905000312 20 180 3.2 1.6 0.00 0.00 0.00 59 1100.0